Terminal Aerodrome Forecast
Issued by NWS

Current Version | Previous Version | Text Only | Print | Product List | Glossary Off
Versions: 1 2 3 4 5 6 7 8 9 10 11 12 13 14 15 16 17 18 19 20 21 22 23 24

000
FTUS41 KRLX 230242 AAA
TAFCKB
TAF AMD
KCKB 230242Z 2303/2324 36004KT P6SM VCSH BKN060
     FM230500 02002KT 6SM BR BKN040
     FM230700 00000KT 3SM BR SCT003 BKN020
     FM231200 00000KT P6SM BKN030
     FM231300 35003KT P6SM BKN040
     FM231800 35005KT P6SM SCT045
     FM231900 35006KT P6SM VCSH BKN045=

USA.gov is the U.S. government's official web portal to all federal, state and local government web resources and services.